Home   Weather   Lillehammer   Past weeks

Flag for Norway Past Weather in Lillehammer, Norway — Yesterday and Last 2 Weeks

Now
18 °F

Cold.


Feels Like: 18 °F
Forecast: 16 / 25 °F
Wind: 1 mph from North

Location: Lillehammer-Saetherengen

Current Time: Jan 23, 2017 at 1:57:18 am

Latest Report: Jan 23, 2017 at 1:00 am


Visibility: N/A

Pressure: 30.10 "Hg

Humidity: 95%

Dew Point: 17 °F

Location of LillehammerLocation

Past Weather in Lillehammer — Graph

°F

Lillehammer Temperature Yesterday

Maximum temperature yesterday: 26 °F (at 1:00 am)
Minimum temperature yesterday: 17 °F (at 9:00 am)
Average temperature yesterday: 21 °F

High & Low Weather Summary for the Past Weeks

 TemperatureHumidityPressure
High39 °F (Jan 11, 4:00 am)99% (Jan 12, 6:00 am)30.44 "Hg (Jan 12, 6:00 am)
Low11 °F (Jan 16, 8:00 pm)75% (Jan 15, 2:00 pm)28.58 "Hg (Jan 11, 4:00 pm)
Average22 °F92%29.86 "Hg
* Reported Jan 8 1:00 am — Jan 23 1:00 am, Lillehammer, Weather by CustomWeather, © 2017

Note: Actual official high and low records may vary slightly from our data, if they occured in-between our weather recording intervals... More about our weather records

Advertising

Lillehammer Weather History for the Previous 24 Hours

Scroll right to see more
 ConditionsComfort  
Time TempWeatherWind HumidityBarometerVisibility
1:00 am
Mon, Jan 23
18 °FCold.1 mph95%30.10 "HgN/A
12:00 am18 °FCold.1 mph95%30.10 "HgN/A
11:00 pm
Sun, Jan 22
19 °FCold.1 mph96%30.11 "HgN/A
10:00 pm20 °FCold.1 mph96%30.11 "HgN/A
9:00 pm20 °FCold.1 mph96%30.12 "HgN/A
8:00 pm20 °FCold.1 mph96%30.12 "HgN/A
7:00 pm21 °FCold.1 mph97%30.13 "HgN/A
6:00 pm21 °FCold.1 mph96%30.14 "HgN/A
5:00 pm21 °FCold.1 mph96%30.15 "HgN/A
4:00 pm22 °FCold.No wind96%30.16 "HgN/A
3:00 pm22 °FCold.No wind96%30.17 "HgN/A
2:00 pm22 °FCold.1 mph96%30.17 "HgN/A
1:00 pm22 °FCold.No wind96%30.20 "HgN/A
12:00 pm22 °FCold.No wind96%30.23 "HgN/A
11:00 am20 °FCold.1 mph96%30.24 "HgN/A
10:00 am19 °FCold.No wind96%30.25 "HgN/A
9:00 am17 °FCold.1 mph95%30.25 "HgN/A
8:00 am18 °FCold.1 mph96%30.25 "HgN/A
7:00 am20 °FCold.1 mph96%30.25 "HgN/A
6:00 am20 °FCold.No wind96%30.26 "HgN/A
5:00 am21 °FCold.No wind97%30.27 "HgN/A
4:00 am22 °FCold.No wind97%30.29 "HgN/A
3:00 am24 °FCold.No wind96%30.30 "HgN/A
2:00 am23 °FCold.No wind97%30.31 "HgN/A
1:00 am26 °FChilly.1 mph97%30.32 "HgN/A
Weather by CustomWeather, © 2017

See weather overviewHow to use our weather pages